Date String (YYYY-MM-DD hh:mm:ss) UTC,Instrument flags,Ambient pressure (hPa),Sample flow (lpm),Bypass flow (lpm),Sample temperature (°C),Ambient temperature (°C),ASC tube jacket temperature (°C),LED temperature (°C),Box temperature (°C),Sample RH (%),Span deviation,Mass concentration (μg/m³),Mass concentration (μg/m³),Mass concentration (μg/m³)
DateTimeUTC,F1_M11,P_M11,Q1_M11,Q2_M11,T1_M11,T2_M11,T3_M11,T4_M11,T5_M11,U1_M11,ZSPAN_M11,X0_M11,X2_M11,X1_M11
2023-04-25 20:00:00,,0824.0,5.01,0.00,27.3,25.9,00.0,35.7,28.9,19.5,0001.3,0012.31,0007.59,0006.73
2023-04-25 20:01:00,,0824.0,5.01,0.00,27.3,25.9,00.0,35.7,28.9,19.4,0000.9,0012.49,0007.73,0006.83
2023-04-25 20:02:00,,0824.0,5.00,0.00,27.3,25.9,00.0,35.7,28.9,19.5,0000.6,0012.71,0007.82,0006.95
2023-04-25 20:03:00,,0823.9,4.99,0.00,27.3,25.9,00.0,35.7,28.9,19.4,0000.6,0013.11,0007.92,0007.06
2023-04-25 20:04:00,,0824.0,5.01,0.00,27.3,25.8,00.0,35.7,28.9,19.2,0000.6,0013.27,0008.03,0007.17
2023-04-25 20:05:00,,0824.0,5.01,0.00,27.3,25.8,00.0,35.7,28.9,18.8,0000.7,0013.39,0008.10,0007.25
2023-04-25 20:06:00,,0824.1,5.00,0.00,27.3,25.8,00.0,35.7,28.9,19.3,0000.4,0014.16,0008.22,0007.33
2023-04-25 20:07:00,,0824.0,4.99,0.00,27.3,25.8,00.0,35.7,28.8,19.5,0000.1,0013.41,0008.27,0007.38
2023-04-25 20:08:00,,0824.0,5.00,0.00,27.3,25.8,00.0,35.7,28.8,19.6,0000.4,0013.32,0008.21,0007.32
2023-04-25 20:09:00,,0824.1,5.00,0.00,27.3,25.8,00.0,35.7,28.8,19.7,0000.4,0013.37,0008.17,0007.24
2023-04-25 20:10:00,,0824.0,5.00,0.00,27.3,25.8,00.0,35.7,28.8,19.4,0000.1,0013.14,0007.96,0007.05
2023-04-25 20:11:00,,0824.0,5.01,0.00,27.3,25.8,00.0,35.7,28.8,19.2,0000.1,0013.10,0007.67,0006.76
2023-04-25 20:12:00,,0824.0,4.99,0.00,27.3,25.7,00.0,35.7,28.8,19.0,0000.4,0013.29,0007.31,0006.45
2023-04-25 20:13:00,,0824.0,5.00,0.00,27.3,25.7,00.0,35.7,28.8,18.7,0000.4,0012.91,0006.90,0006.06
2023-04-25 20:14:00,,0824.1,5.00,0.00,27.2,25.7,00.0,35.7,28.8,18.4,0000.3,0012.40,0006.49,0005.64
2023-04-25 20:15:00,,0824.1,5.01,0.00,27.2,25.6,00.0,35.7,28.8,18.4,0000.1,0012.48,0006.08,0005.25
2023-04-25 20:16:00,,0824.0,5.00,0.00,27.2,25.6,00.0,35.7,28.8,18.5,0000.1,0011.87,0005.68,0004.88
2023-04-25 20:17:00,,0824.0,5.00,0.00,27.2,25.6,00.0,35.7,28.7,18.6,0000.4,0010.62,0005.22,0004.48
2023-04-25 20:18:00,,0824.0,5.00,0.00,27.2,25.5,00.0,35.6,28.7,18.6,0000.6,0010.08,0004.80,0004.11
2023-04-25 20:19:00,,0824.0,5.01,0.00,27.1,25.5,00.0,35.6,28.6,18.6,-000.0,0009.78,0004.52,0003.84
2023-04-25 20:20:00,,0824.1,5.01,0.00,27.1,25.4,00.0,35.6,28.6,18.8,0000.0,0009.25,0004.17,0003.56
2023-04-25 20:21:00,,0824.1,5.00,0.00,27.1,25.4,00.0,35.6,28.6,18.9,0000.0,0009.00,0003.95,0003.35
2023-04-25 20:22:00,,0824.1,5.00,0.00,27.1,25.4,00.0,35.6,28.6,19.0,0000.0,0008.67,0003.77,0003.18
2023-04-25 20:23:00,,0824.3,4.99,0.00,27.1,25.4,00.0,35.6,28.6,19.1,0000.0,0008.11,0003.63,0002.98
2023-04-25 20:24:00,,0824.3,5.01,0.00,27.0,25.3,00.0,35.6,28.6,19.3,0000.0,0008.19,0003.55,0002.83
2023-04-25 20:25:00,,0824.3,5.00,0.00,27.0,25.2,00.0,35.6,28.5,19.3,0000.0,0007.98,0003.48,0002.71
2023-04-25 20:26:00,,0824.3,5.00,0.00,27.0,25.2,00.0,35.5,28.5,19.5,0000.0,0007.40,0003.39,0002.60
2023-04-25 20:27:00,,0824.4,5.00,0.00,27.0,25.2,00.0,35.5,28.5,19.2,0000.0,0007.32,0003.32,0002.49
2023-04-25 20:28:00,,0824.3,5.00,0.00,26.9,25.2,00.0,35.5,28.5,19.0,0000.0,0007.50,0003.30,0002.41
2023-04-25 20:29:00,,0824.3,5.00,0.00,26.9,25.1,00.0,35.5,28.4,18.8,0000.0,0008.15,0003.26,0002.35
2023-04-25 20:30:00,,0824.3,5.00,0.00,26.9,25.1,00.0,35.5,28.4,19.0,0000.0,0007.97,0003.20,0002.25
2023-04-25 20:31:00,,0824.2,5.00,0.00,26.9,25.1,00.0,35.5,28.4,18.8,0000.0,0007.91,0003.17,0002.18
2023-04-25 20:32:00,,0824.3,5.02,0.00,26.8,25.1,00.0,35.4,28.4,18.6,0000.0,0007.75,0003.12,0002.13
2023-04-25 20:33:00,,0824.3,5.00,0.00,26.8,25.1,00.0,35.4,28.3,18.8,0000.0,0007.52,0003.04,0002.10
2023-04-25 20:34:00,,0824.4,5.00,0.00,26.8,25.0,00.0,35.4,28.3,19.0,0000.0,0007.38,0003.05,0002.10
2023-04-25 20:35:00,,0824.4,4.99,0.00,26.8,25.0,00.0,35.4,28.3,18.9,0000.0,0006.77,0003.02,0002.09
2023-04-25 20:36:00,,0824.3,4.99,0.00,26.8,25.0,00.0,35.4,28.3,18.9,0000.0,0006.50,0002.96,0002.07
2023-04-25 20:37:00,,0824.5,5.01,0.00,26.7,24.9,00.0,35.3,28.2,19.0,0000.0,0006.16,0002.89,0002.04
2023-04-25 20:38:00,,0824.4,5.01,0.00,26.7,24.8,00.0,35.3,28.2,19.1,0000.0,0005.99,0002.82,0001.99
2023-04-25 20:39:00,,0824.5,4.99,0.00,26.7,24.8,00.0,35.3,28.2,19.1,0000.0,0005.57,0002.71,0001.93
2023-04-25 20:40:00,,0824.5,5.00,0.00,26.6,24.8,00.0,35.3,28.2,19.2,0000.0,0004.10,0002.60,0001.87
2023-04-25 20:41:00,,0824.7,5.01,0.00,26.6,24.7,00.0,35.3,28.1,19.1,0000.0,0004.28,0002.52,0001.83
2023-04-25 20:42:00,,0824.6,5.01,0.00,26.6,24.7,00.0,35.2,28.1,19.4,0000.0,0004.56,0002.54,0001.81
2023-04-25 20:43:00,,0824.7,4.98,0.00,26.6,24.7,00.0,35.2,28.1,18.9,0000.0,0005.42,0002.51,0001.81
2023-04-25 20:44:00,,0824.7,5.02,0.00,26.6,24.7,00.0,35.2,28.0,19.1,0000.0,0006.11,0002.48,0001.78
2023-04-25 20:45:00,,0824.7,5.01,0.00,26.5,24.7,00.0,35.2,28.1,19.2,0000.0,0006.01,0002.39,0001.75
2023-04-25 20:46:00,,0824.8,5.00,0.00,26.5,24.7,00.0,35.2,28.1,19.5,0000.0,0005.91,0002.34,0001.74
2023-04-25 20:47:00,,0824.8,4.98,0.00,26.5,24.8,00.0,35.1,28.1,19.4,0000.0,0007.16,0002.30,0001.73
2023-04-25 20:48:00,,0824.7,5.00,0.00,26.5,24.8,00.0,35.1,28.1,19.3,0000.0,0007.44,0002.32,0001.74
2023-04-25 20:49:00,,0824.7,5.01,0.00,26.5,24.8,00.0,35.1,28.0,19.3,0000.0,0007.48,0002.34,0001.76
2023-04-25 20:50:00,,0824.7,5.00,0.00,26.5,24.8,00.0,35.1,28.1,18.9,0000.0,0008.01,0002.37,0001.77
2023-04-25 20:51:00,,0824.7,5.00,0.00,26.5,24.7,00.0,35.1,28.0,18.8,0000.0,0008.18,0002.41,0001.79
2023-04-25 20:52:00,,0824.7,5.00,0.00,26.4,24.7,00.0,35.0,28.0,19.0,0000.0,0008.02,0002.39,0001.77
2023-04-25 20:53:00,,0824.8,5.00,0.00,26.4,24.6,00.0,35.0,28.0,19.1,0000.0,0007.91,0002.29,0001.73
2023-04-25 20:54:00,,0824.9,5.00,0.00,26.4,24.6,00.0,35.0,27.9,19.2,0000.0,0007.51,0002.28,0001.69
2023-04-25 20:55:00,,0824.8,5.00,0.00,26.4,24.6,00.0,35.0,28.0,19.2,0000.0,0007.28,0002.29,0001.68
2023-04-25 20:56:00,,0824.8,5.00,0.00,26.4,24.6,00.0,35.0,28.0,19.3,0000.0,0007.50,0002.27,0001.64
2023-04-25 20:57:00,,0824.8,5.00,0.00,26.4,24.6,00.0,35.0,27.9,19.1,0000.0,0007.45,0002.20,0001.59
2023-04-25 20:58:00,,0824.9,5.00,0.00,26.4,24.6,00.0,35.0,27.9,19.1,0000.0,0006.06,0002.18,0001.56
2023-04-25 20:59:00,,0824.9,5.00,0.00,26.3,24.6,00.0,34.9,27.9,19.0,0000.0,0006.70,0002.22,0001.54
